Regional Weather Roundup
Issued by NWS

Home | Current Version | Previous Version | Text Only | Print | Product List | Glossary On
Versions: 1 2 3 4 5 6 7 8 9 10 11 12 13 14 15 16 17 18 19 20 21 22 23 24 25 26 27 28 29 30 31 32 33 34 35 36 37 38 39 40 41 42 43 44 45 46 47 48 49 50
000
ASUS43 KDMX 052307
RWRIA

WEATHER ROUNDUP FOR IOWA
NATIONAL WEATHER SERVICE DES MOINES IA
600 PM CDT SUN JUL 05 2015

NOTE: "FAIR" INDICATES FEW OR NO CLOUDS BELOW 12,000 FEET WITH NO
SIGNIFICANT WEATHER AND/OR OBSTRUCTIONS TO VISIBILITY.

* - THESE STATIONS ARE NOT NWS STATIONS...THUS NOT UNDER NWS
QUALITY CONTROL.  THEY ALSO DO NOT REPORT WEATHER SUCH
AS PRECIPITATION OR FOG.

IAZ001>003-012>014-020>022-031>034-043>046-060000-
   NORTHWEST IOWA

CITY           SKY/WX    TMP DP  RH WIND       PRES   REMARKS
CARROLL *      SUNNY     86  70  58 S16G26    29.86F HX  90
CHEROKEE *     MOSUNNY   84  73  70 S13G22    29.84S HX  91
DENISON *      SUNNY     84  72  65 S16G23    29.82F HX  89
LE MARS *      SUNNY     86  73  66 S14G20    29.81S HX  93
ORANGE CITY *  SUNNY     84  72  65 SE13G18   29.82F HX  89
SHELDON *      SUNNY     86  72  62 S14G22    29.81F HX  92
SIOUX CITY     MOSUNNY   88  73  61 S16G24    29.80S HX  95
SPENCER        MOSUNNY   87  68  52 S20       29.84F HX  90
STORM LAKE *   SUNNY     84  72  65 SE20G25   29.86F HX  89
$$

IAZ055>058-069>071-079>083-090>094-060000-
   SOUTHWEST IOWA

CITY           SKY/WX    TMP DP  RH WIND       PRES   REMARKS
ATLANTIC *     SUNNY     86  70  58 SE12G23   29.86S HX  90
AUDUBON *      SUNNY     86  72  62 SE13G21   29.88F HX  92
CLARINDA *     SUNNY     86  86 100 S9        29.88S HX 112
COUNCIL BLFS * PTSUNNY   88  75  66 SE18      29.84R HX  97
CRESTON *      SUNNY     84  70  61 SE14G24   29.90F HX  88
HARLAN  *      SUNNY     86  77  74 S14G21    29.87F HX  97
LAMONI         PTSUNNY   84  71  65 SE8       29.92F HX  89
RED OAK *      SUNNY     88  73  62 SE16G25   29.85F HX  96
SHENANDOAH *   SUNNY     90  77  66 SE15G24   29.84F HX 102
$$

IAZ047>049-059>061-072>074-084-060000-
   CENTRAL IOWA

CITY           SKY/WX    TMP DP  RH WIND       PRES   REMARKS
AMES           MOSUNNY   83  70  64 SE16      29.90F HX  87
ANKENY *       SUNNY     84  72  65 S14G20    29.90F HX  89
CHARITON *     SUNNY     81  68  65 SE10      29.93F HX  83
DES MOINES     PTSUNNY   86  69  56 SE17      29.90F HX  90
GRINNELL*      MOSUNNY   81  66  61 S13       29.95F HX  83
KNOXVILLE *    SUNNY     81  68  65 SE8       29.92F HX  83
MARSHALLTOWN   MOSUNNY   83  68  60 S16G23    29.92F HX  86
PELLA *        PTSUNNY   82  72  69 S7        29.94F HX  87
PERRY *          N/A     84  70  61 S12       29.89S HX  88
$$

IAZ004>006-015-016-023>025-035-036-060000-
   NORTH CENTRAL IOWA

CITY           SKY/WX    TMP DP  RH WIND       PRES   REMARKS
ALGONA *       SUNNY     84  72  65 SE14G22   29.88S HX  89
CLARION *      SUNNY     84  68  58 S17G24    29.90S HX  87
ESTHERVILLE    MOSUNNY   85  71  63 S18       29.86F HX  90
FORT DODGE *   SUNNY     86  70  58 S10       29.89S HX  90
MASON CITY     MOSUNNY   83  69  62 S16       29.92F HX  86
FOREST CITY *  SUNNY     81  66  61 SE15G21   29.90S HX  83
IOWA FALLS *     N/A     82  66  57 SE16G22   29.93F HX  85
$$

IAZ007>011-017>019-026>030-037>042-050>054-066-060000-
   NORTHEAST IOWA

CITY           SKY/WX    TMP DP  RH WIND       PRES   REMARKS
CEDAR RAPIDS   PTSUNNY   81  69  67 S9        29.95F HX  84
CHARLES CITY * SUNNY     81  70  69 S12G18    29.94F HX  84
CLINTON *      MOSUNNY   79  64  61 S9        30.03S HX  81
DECORAH *        N/A    N/A N/A N/A MISG        N/A
DUBUQUE        PTSUNNY   80  66  62 S13       29.99F HX  82
MONTICELLO *   SUNNY     81  68  65 S12       29.97F HX  83
OELWEIN *      SUNNY     81  68  65 S10G16    29.97S HX  83
WATERLOO       MOSUNNY   83  67  58 S14       29.92F HX  85
$$

IAZ064-065-067-068-078-060000-
   EAST CENTRAL IOWA

CITY           SKY/WX    TMP DP  RH WIND       PRES   REMARKS
DAVENPORT      PTSUNNY   79  65  62 S8        30.00S HX  81
IOWA CITY      PTSUNNY   83  69  62 S13       29.96F HX  86
MT. PLEASANT * PTSUNNY   86  64  48 SE9       29.97F HX  87
MUSCATINE *    MOSUNNY   84  70  61 SE13      29.97F HX  88
QUAD CITIES    PTSUNNY   79  66  64 SE7       29.99F HX  81
$$

IAZ062-063-075>077-085>089-095>099-060000-
   SOUTHEAST IOWA

CITY           SKY/WX    TMP DP  RH WIND       PRES   REMARKS
BURLINGTON     PTSUNNY   83  72  69 S8        29.98F HX  88
FAIRFIELD *    SUNNY     84  70  61 SE8       29.96F HX  88
FORT MADISON * MOSUNNY   82  70  65 S7        29.99S HX  86
KEOKUK *       MOSUNNY   82  70  65 S5G12     29.97F HX  86
OSKALOOSA *      N/A     84  68  58 S12       29.95F HX  87
CENTERVILLE *  SUNNY     82  68  61 SE10      29.97S HX  85
OTTUMWA        MOSUNNY   83  69  62 S13       29.93F HX  86
WASHINGTON *   MOSUNNY   82  72  69 SE8       29.98F HX  87
$$

ABBREVIATIONS USED IN REMARKS
   TC - TEMPERATURES IN CELSIUS
  WCI - WIND CHILL INDEX
   HX - HEAT INDEX
  VSB - VISIBILITY
$$




USA.gov is the U.S. government's official web portal to all federal, state and local government web resources and services.